Vicksburg, LA

10:47 PM CDT on April 22, 2018 (GMT -0500)
Vicksburg Tallulah Regional

Weather History for KTVR - February, 2012

Change the Weather History Date:

Saturday, February 25, 2012

  Actual Average Record
Temperature  
Mean Temperature 46 °F 52 °F  
Max Temperature 62 °F 63 °F 80 °F (2000)
Min Temperature 30 °F 42 °F 22 °F (1965)
Degree Days  
Heating Degree Days 19 13  
Month to date heating degree days 320 394  
Since 1 July heating degree days 1682 1938  
Cooling Degree Days 0 0  
Month to date cooling degree days 11 0  
Year to date cooling degree days 16 3  
Moisture  
Dew Point 30 °F    
Average Humidity 57    
Maximum Humidity 92    
Minimum Humidity 21    
Precipitation  
Precipitation 0.00 in 0.18 in 2.74 in (2006)
Month to date precipitation 6.71 4.72  
Year to date precipitation 10.75 9.79  
Sea Level Pressure  
Sea Level Pressure 30.36 in    
Wind  
Wind Speed 2 mph (North)    
Max Wind Speed 10 mph    
Max Gust Speed 14 mph    
Visibility 10 miles    
Events      
T = Trace of Precipitation, MM = Missing Value Source: NWS Daily Summary

Daily Weather History Graph

Daily Weather History Graph

Search for Another Location

Airport or City:

Astronomy

Feb. 25, 2012 Rise Set
Actual Time 6:36 AM CST 5:58 PM CST
Civil Twilight 6:12 AM CST 6:22 PM CST
Nautical Twilight 5:43 AM CST 6:51 PM CST
Astronomical Twilight 5:15 AM CST 7:19 PM CST
Moon 8:17 AM CST (2/25) 9:40 PM CST (2/25)
Length of Visible Light 12h 10m
Length of Day
11h 21m
Waxing Crescent, 14% of the Moon is Illuminated
Feb 25
Waxing Crescent
Feb 29
First Quarter
Mar 8
Full
Mar 14
Last Quarter
Mar 22
New

Hourly Weather History & Observations

Time (CST) Temp. Windchill Dew Point Humidity Pressure Visibility Wind Dir Wind Speed Gust Speed Precip Events Conditions
12:53 AM 41.0 °F 39.0 °F 32.0 °F 70% 30.36 in 10.0 mi NW 3.5 mph - N/A   Clear
1:53 AM 39.9 °F 36.7 °F 32.0 °F 73% 30.37 in 10.0 mi WNW 4.6 mph - N/A   Clear
3:53 AM 39.9 °F - 28.0 °F 63% 30.38 in 10.0 mi Calm Calm - N/A   Clear
4:53 AM 37.0 °F - 28.9 °F 73% 30.38 in 10.0 mi Calm Calm - N/A   Clear
6:53 AM 32.0 °F - 30.0 °F 92% 30.40 in 10.0 mi Calm Calm - N/A   Clear
7:53 AM 39.9 °F - 35.1 °F 83% 30.42 in 10.0 mi Calm Calm - N/A   Clear
8:53 AM 48.9 °F - 30.0 °F 48% 30.44 in 10.0 mi Calm Calm - N/A   Clear
9:53 AM 54.0 °F - 28.0 °F 37% 30.43 in 10.0 mi Calm Calm - N/A   Clear
10:53 AM 57.0 °F - 25.0 °F 29% 30.43 in 10.0 mi North 6.9 mph - N/A   Clear
11:53 AM 60.1 °F - 21.9 °F 23% 30.41 in 10.0 mi North 8.1 mph - N/A   Clear
12:53 PM 60.1 °F - 23.0 °F 24% 30.37 in 10.0 mi Variable 3.5 mph - N/A   Clear
1:53 PM 59.0 °F - 19.9 °F 22% 30.34 in 10.0 mi Calm Calm - N/A   Clear
2:53 PM 60.1 °F - 23.0 °F 24% 30.34 in 10.0 mi North 8.1 mph - N/A   Clear
4:53 PM 59.0 °F - 25.0 °F 27% 30.30 in 10.0 mi NNW 3.5 mph - N/A   Clear
5:53 PM 55.9 °F - 26.1 °F 32% 30.32 in 10.0 mi Calm Calm - N/A   Clear
6:53 PM 53.1 °F - 32.0 °F 45% 30.33 in 10.0 mi Calm Calm - N/A   Clear
7:53 PM 52.0 °F - 39.9 °F 63% 30.32 in 10.0 mi North 3.5 mph - N/A   Clear
8:53 PM 48.9 °F - 37.9 °F 66% 30.33 in 10.0 mi Calm Calm - N/A   Clear
9:53 PM 48.9 °F - 42.1 °F 77% 30.31 in 10.0 mi ESE 5.8 mph - N/A   Clear
10:53 PM 48.9 °F - 39.9 °F 71% 30.30 in 10.0 mi Calm Calm - N/A   Clear
11:53 PM 46.0 °F 43.9 °F 37.9 °F 73% 30.29 in 10.0 mi SE 4.6 mph - N/A   Clear